Regional Weather Roundup
Issued by NWS

Home | Current Version | Previous Version | Graphics & Text | Print | Product List | Glossary On
Versions: 1 2 3 4 5 6 7 8 9 10 11 12 13 14 15 16 17 18 19 20 21 22 23 24 25 26 27 28 29 30 31 32 33 34 35 36 37 38 39 40 41 42 43 44 45 46 47 48 49 50
970
ASUS43 KLOT 271004
RWRIL

ILLINOIS REGIONAL WEATHER ROUNDUP
NATIONAL WEATHER SERVICE CHICAGO/ROMEOVILLE IL
500 AM CDT SAT AUG 27 2016

NOTE: "FAIR" INDICATES FEW OR NO CLOUDS BELOW 12,000 FEET WITH NO
SIGNIFICANT WEATHER AND/OR OBSTRUCTIONS TO VISIBILITY.

* THESE STATIONS ARE NOT UNDER NWS QUALITY CONTROL. THEY ALSO MAY NOT
  REPORT WEATHER SUCH AS PRECIPITATION OR FOG.

ILZ001-002-007-009-015-016-024-271100-
NORTHWEST ILLINOIS

CITY           SKY/WX    TMP DP  RH WIND       PRES   REMARKS
MOLINE         CLOUDY    72  69  90 CALM      29.99F
STERLING*      LGT RAIN  67  67 100 VRB5      30.04F FOG
SAVANNA*       LGT RAIN  67  66  96 E3        30.03S
$$

ILZ003-004-008-010-011-017-018-271100-
NORTH CENTRAL ILLINOIS

CITY           SKY/WX    TMP DP  RH WIND       PRES   REMARKS
ROCKFORD       CLOUDY    66  62  87 E5        30.06F
ROCHELLE*      CLOUDY    65  64  97 CALM      30.06S
$$

ILZ005-006-012>014-019>023-271100-
NORTHEAST ILLINOIS

CITY           SKY/WX    TMP DP  RH WIND       PRES   REMARKS
CHICAGO-OHARE  LGT RAIN  68  65  90 E8        30.05F
CHICAGO-MIDWAY TSTM      70  67  90 E8        30.05S FOG
AURORA         RAIN      68  66  93 E6        30.07R FOG
LANSING*       CLOUDY    69  69 100 CALM      30.07R
JOLIET*        CLOUDY    71  70  95 E5        30.06S THUNDER
WAUKEGAN       LGT RAIN  67  65  93 CALM      30.06S
DUPAGE AIRPORT TSTM      68  65  90 W9        30.09R FOG
KANKAKEE*      TSTM      71  70  97 SW13      30.10R
WHEELING       LGT RAIN  68  64  87 CALM      30.07F
MORRIS*        CLOUDY    69  68  96 CALM      30.05S THUNDER
ROMEOVILLE*    CLOUDY    69  69 100 SE9       30.05F
NORTHERLY ISL    N/A     70  66  87 S2          N/A
$$

LMZ740>746-271100-
SOUTHERN LAKE MICHIGAN

STATION/POSITION SKY/WX   TEMP    WIND        PRES    VSBY  WAVE
                          AIR SEA DIR/SP/G                  HT/PER
                          (F)     (DEG/KT/KT) (MB)    (MI)  (FT/S)
SOUTHERN BUOY              71 74   90/ 16/ 17 1017.5F         2/ 4
WILMETTE HARBOR            72 70  120/ 10/ 14   N/A           3/ 4
HARRISON CRIB              73     120/ 11/ 12   N/A
BURNHAM HARBOR             69      CALM  /  7   N/A
CALUMET HARBOR             69      80/  5/  6 1017.7F
BURNS HARBOR               70      CALM  /  9 1018.6S
MICHIGAN CITY              70      70/  5/  6   N/A
MICHIGAN CITY 6N           72 74  100/  8/ 10   N/A           2/ 4
ST. JOSEPH                 71 76  100/ 12/ 16 1018.0F         1/ 3
$$

ILZ025>027-034>036-040-047-049-050-058-095>099-271100-
WEST-CENTRAL ILLINOIS

CITY           SKY/WX    TMP DP  RH WIND       PRES   REMARKS
QUINCY         PTCLDY    70  70 100 S8        30.02R
GALESBURG*     CLOUDY    70  69  98 E6        30.00F
MACOMB*        CLOUDY    69  68  99 CALM      30.02F
JACKSONVILLE*  TSTM      71  69  95 SW6       30.05R
PITTSFIELD*    CLOUDY    72  70  95 SE5       30.05R
$$

ILZ028>032-037-038-041>044-048-051>054-059>061-271100-
CENTRAL ILLINOIS

CITY           SKY/WX    TMP DP  RH WIND       PRES   REMARKS
PONTIAC        RAIN      72  72 100 SE9       30.05F
BLOOMINGTON    LGT RAIN  71  70  96 SE9       30.04F
DECATUR        CLOUDY    73  70  90 S6        30.03F
PEORIA         HVY RAIN  70  70 100 CALM      30.05S FOG
LACON*         RAIN      69  68  97 E3        30.04S
LINCOLN*       CLOUDY    73  72  98 N3        30.04R
SPRINGFIELD    LGT RAIN  75  72  90 SW5       30.03S
TAYLORVILLE    MOCLDY    71  71  99 SW6       30.03F
$$

ILZ033-039-045-046-055>057-062-063-271100-
EAST-CENTRAL ILLINOIS

CITY           SKY/WX    TMP DP  RH WIND       PRES   REMARKS
CHAMPAIGN      MOCLDY    72  68  87 SW7       30.04F
RANTOUL*       CLOUDY    72  71  97 CALM      30.05F
MATTOON        CLOUDY    70  69  97 SE3       30.02F
PARIS*         CLOUDY    70  70 100 CALM      30.05S FOG
$$

ILZ079-100>102-271100-
SOUTHWEST ILLINOIS

CITY           SKY/WX    TMP DP  RH WIND       PRES   REMARKS
ALTON          MOCLDY    73  71  95 S3        30.03F
BELLEVILLE     CLOUDY    73  73 100 E1        30.03S
CAHOKIA*       CLOUDY    72  69  90 CALM      30.03F
SPARTA*        CLOUDY    71  69  94 CALM      30.06R
$$

ILZ064>066-069>071-074>076-080>082-084>086-088>090-092>094-271100-
SOUTH-CENTRAL ILLINOIS

CITY           SKY/WX    TMP DP  RH WIND       PRES   REMARKS
CARBONDALE     PTCLDY    69  67  93 CALM      30.04R
EFFINGHAM*     PTCLDY    71  71 100 CALM      30.04S
MARION         PTCLDY    70  70 100 CALM      30.04S
MT. VERNON     CLOUDY    70  64  83 CALM      30.04S
CENTRALIA*     CLOUDY    69  68  99 CALM      30.03S
SALEM*         CLOUDY    71  68  89 S3        30.03S
METROPOLIS*    PTCLDY    71  71  98 CALM      30.03S
$$

ILZ067-068-072-073-078-083-087-091-271100-
SOUTHEAST ILLINOIS

CITY           SKY/WX    TMP DP  RH WIND       PRES   REMARKS
LAWRENCEVILLE  CLOUDY    72  71  97 S5        30.06R
FLORA*         PTCLDY    71  70  96 SE3       30.04S
FAIRFIELD*     CLOUDY    69  69  99 CALM      30.04R
HARRISBURG*    CLOUDY    71  71 100 N3        30.03S
ROBINSON*      CLOUDY    70  70 100 SE5       30.06R
CARMI*         CLOUDY    71  71 100 CALM      30.03S
$$

ABBREVIATIONS USED IN REMARKS
   TC - TEMPERATURE IN CELSIUS
  WCI - WIND CHILL INDEX
   HX - HEAT INDEX
  VSB - VISIBILITY
$$





USA.gov is the U.S. government's official web portal to all federal, state and local government web resources and services.